| time (UTC) | temp F | wind direction | speed knots | gust knots | rain 1hr in | rain 24hr in | rain mn in | humidity % | barometer mb |
| 20260507031103 | 55 | 0 | 0.0 | 4.3 | 0.00 | 0.11 | 0.11 | 93 | 1007.4 |
| 20260507030559 | 55 | 163 | 0.9 | 4.3 | 0.00 | 0.11 | 0.11 | 93 | 1007.4 |
| 20260507030101 | 55 | 0 | 0.0 | 3.5 | 0.00 | 0.11 | 0.11 | 93 | 1007.2 |
| 20260507025604 | 55 | 0 | 0.0 | 3.5 | 0.00 | 0.11 | 0.11 | 93 | 1007.2 |
| 20260507025058 | 55 | 0 | 0.9 | 3.5 | 0.00 | 0.11 | 0.11 | 93 | 1007.3 |
| 20260507024620 | 55 | 207 | 0.9 | 3.5 | 0.00 | 0.11 | 0.11 | 93 | 1007.3 |
| 20260507024100 | 55 | 148 | 0.9 | 3.5 | 0.00 | 0.11 | 0.11 | 93 | 1007.3 |
| 20260507023604 | 55 | 223 | 0.9 | 2.6 | 0.00 | 0.11 | 0.11 | 93 | 1007.4 |
| 20260507023059 | 55 | 313 | 0.0 | 2.6 | 0.00 | 0.11 | 0.11 | 93 | 1007.2 |
| 20260507022558 | 55 | 0 | 0.0 | 4.3 | 0.00 | 0.11 | 0.11 | 93 | 1007.2 |
| 20260507022059 | 55 | 0 | 0.0 | 4.3 | 0.00 | 0.11 | 0.11 | 93 | 1007.4 |
| 20260507021600 | 55 | 200 | 0.9 | 4.3 | 0.00 | 0.11 | 0.11 | 93 | 1007.5 |
| 20260507021059 | 55 | 0 | 0.9 | 3.5 | 0.00 | 0.11 | 0.11 | 93 | 1007.4 |
| 20260507020559 | 55 | 131 | 0.0 | 4.3 | 0.00 | 0.11 | 0.11 | 93 | 1007.5 |
| 20260507020110 | 55 | 200 | 0.9 | 4.3 | 0.00 | 0.11 | 0.11 | 93 | 1007.6 |
| 20260507015558 | 55 | 0 | 0.0 | 3.5 | 0.00 | 0.11 | 0.11 | 93 | 1007.6 |
| 20260507015100 | 55 | 0 | 0.0 | 3.5 | 0.00 | 0.11 | 0.11 | 93 | 1007.7 |
| 20260507014609 | 55 | 0 | 0.0 | 4.3 | 0.00 | 0.11 | 0.11 | 93 | 1007.9 |
| 20260507014058 | 55 | 0 | 0.9 | 4.3 | 0.00 | 0.11 | 0.11 | 93 | 1007.8 |
| 20260507013558 | 55 | 200 | 0.9 | 4.3 | 0.00 | 0.11 | 0.11 | 93 | 1007.7 |
| 20260507013059 | 55 | 188 | 0.0 | 1.7 | 0.00 | 0.11 | 0.11 | 93 | 1007.8 |
| 20260507012601 | 55 | 0 | 0.0 | 3.5 | 0.00 | 0.11 | 0.11 | 93 | 1007.8 |
| 20260507012058 | 55 | 0 | 0.0 | 3.5 | 0.00 | 0.11 | 0.11 | 93 | 1007.9 |
| 20260507011603 | 55 | 0 | 0.9 | 7.0 | 0.00 | 0.11 | 0.11 | 93 | 1007.9 |
| 20260507011059 | 55 | 50 | 0.0 | 7.0 | 0.00 | 0.11 | 0.11 | 93 | 1008.0 |
| 20260507010559 | 55 | 182 | 0.0 | 3.5 | 0.00 | 0.11 | 0.11 | 93 | 1008.1 |
| 20260507010101 | 55 | 0 | 0.9 | 5.2 | 0.00 | 0.11 | 0.11 | 93 | 1008.1 |
| 20260507005558 | 55 | 164 | 0.9 | 5.2 | 0.00 | 0.11 | 0.11 | 93 | 1008.0 |
| 20260507005058 | 55 | 169 | 0.9 | 6.1 | 0.00 | 0.11 | 0.11 | 93 | 1007.9 |
| 20260507004601 | 55 | 205 | 0.9 | 6.1 | 0.00 | 0.11 | 0.11 | 93 | 1007.9 |
| 20260507004101 | 55 | 0 | 1.7 | 6.1 | 0.00 | 0.11 | 0.11 | 93 | 1007.9 |
| 20260507003558 | 55 | 178 | 0.9 | 5.2 | 0.00 | 0.11 | 0.11 | 93 | 1007.9 |
| 20260507003101 | 55 | 182 | 0.0 | 4.3 | 0.00 | 0.11 | 0.11 | 93 | 1008.0 |
| 20260507002559 | 55 | 157 | 0.9 | 4.3 | 0.00 | 0.11 | 0.11 | 92 | 1008.0 |
| 20260507002102 | 55 | 0 | 0.9 | 4.3 | 0.00 | 0.11 | 0.11 | 92 | 1008.0 |
| 20260507001611 | 55 | 0 | 1.7 | 5.2 | 0.00 | 0.11 | 0.11 | 92 | 1008.1 |
| 20260507001057 | 55 | 240 | 0.9 | 5.2 | 0.00 | 0.11 | 0.11 | 92 | 1008.0 |
| 20260507000601 | 55 | 210 | 0.9 | 8.7 | 0.02 | 0.11 | 0.11 | 92 | 1008.0 |
| 20260507000100 | 55 | 159 | 2.6 | 8.7 | 0.03 | 0.11 | 0.11 | 92 | 1008.0 |
| 20260506235601 | 55 | 266 | 0.9 | 7.0 | 0.04 | 0.11 | 0.11 | 92 | 1008.1 |
| 20260506235058 | 55 | 115 | 1.7 | 7.0 | 0.04 | 0.11 | 0.11 | 92 | 1008.0 |
| 20260506234612 | 55 | 0 | 2.6 | 7.0 | 0.04 | 0.11 | 0.11 | 92 | 1008.0 |
| 20260506234058 | 55 | 0 | 1.7 | 4.3 | 0.04 | 0.11 | 0.11 | 92 | 1008.0 |
| 20260506233603 | 56 | 182 | 0.9 | 6.1 | 0.04 | 0.11 | 0.11 | 92 | 1008.0 |
| 20260506233101 | 55 | 180 | 1.7 | 10.4 | 0.05 | 0.11 | 0.11 | 92 | 1008.0 |
| 20260506232559 | 55 | 180 | 2.6 | 10.4 | 0.05 | 0.11 | 0.11 | 92 | 1008.0 |
| 20260506232059 | 55 | 172 | 1.7 | 5.2 | 0.06 | 0.11 | 0.11 | 92 | 1008.0 |
| 20260506231600 | 56 | 223 | 0.9 | 6.1 | 0.06 | 0.11 | 0.11 | 92 | 1008.0 |
| 20260506231059 | 55 | 313 | 0.9 | 7.0 | 0.06 | 0.11 | 0.11 | 91 | 1008.0 |
| 20260506230558 | 55 | 111 | 1.7 | 7.0 | 0.04 | 0.09 | 0.09 | 91 | 1007.9 |
| 20260506225602 | 56 | 200 | 0.9 | 5.2 | 0.02 | 0.07 | 0.07 | 91 | 1007.8 |
| 20260506225102 | 55 | 0 | 0.9 | 4.3 | 0.02 | 0.07 | 0.07 | 91 | 1007.7 |
| 20260506224600 | 56 | 159 | 0.9 | 7.8 | 0.02 | 0.07 | 0.07 | 91 | 1007.6 |
| 20260506224058 | 56 | 200 | 0.9 | 7.8 | 0.02 | 0.07 | 0.07 | 91 | 1007.7 |
| 20260506223558 | 56 | 0 | 0.9 | 7.0 | 0.02 | 0.07 | 0.07 | 91 | 1007.8 |
| 20260506223100 | 56 | 192 | 1.7 | 7.0 | 0.01 | 0.06 | 0.06 | 91 | 1007.9 |
| 20260506222601 | 56 | 174 | 1.7 | 7.8 | 0.01 | 0.06 | 0.06 | 90 | 1007.9 |
| 20260506222059 | 56 | 212 | 1.7 | 11.3 | 0.00 | 0.05 | 0.05 | 90 | 1007.9 |
| 20260506221558 | 56 | 0 | 2.6 | 11.3 | 0.00 | 0.05 | 0.05 | 90 | 1008.2 |
| 20260506221058 | 56 | 211 | 0.9 | 10.4 | 0.01 | 0.05 | 0.05 | 90 | 1008.2 |
| 20260506220558 | 56 | 215 | 1.7 | 10.4 | 0.01 | 0.05 | 0.05 | 90 | 1008.2 |
| 20260506220058 | 56 | 199 | 2.6 | 8.7 | 0.01 | 0.05 | 0.05 | 90 | 1008.3 |
| 20260506215557 | 56 | 194 | 1.7 | 6.1 | 0.02 | 0.05 | 0.05 | 90 | 1008.4 |
| 20260506215059 | 56 | 192 | 1.7 | 6.1 | 0.02 | 0.05 | 0.05 | 90 | 1008.3 |
| 20260506214558 | 56 | 181 | 1.7 | 6.1 | 0.02 | 0.05 | 0.05 | 90 | 1008.4 |
| 20260506214059 | 56 | 200 | 1.7 | 6.1 | 0.02 | 0.05 | 0.05 | 90 | 1008.3 |
| 20260506213600 | 56 | 153 | 1.7 | 6.1 | 0.02 | 0.05 | 0.05 | 90 | 1008.4 |
| 20260506213139 | 57 | 0 | 0.9 | 7.0 | 0.02 | 0.05 | 0.05 | 90 | 1008.5 |
| 20260506212558 | 56 | 207 | 1.7 | 7.8 | 0.02 | 0.05 | 0.05 | 89 | 1008.6 |
| 20260506212058 | 57 | 180 | 1.7 | 8.7 | 0.02 | 0.05 | 0.05 | 89 | 1008.4 |
| 20260506211625 | 57 | 193 | 2.6 | 8.7 | 0.02 | 0.05 | 0.05 | 88 | 1008.6 |
| 20260506211057 | 57 | 175 | 1.7 | 10.4 | 0.01 | 0.04 | 0.04 | 88 | 1008.6 |
| 20260506210601 | 57 | 198 | 1.7 | 11.3 | 0.01 | 0.04 | 0.04 | 88 | 1008.6 |
| 20260506210126 | 57 | 153 | 2.6 | 11.3 | 0.01 | 0.04 | 0.04 | 87 | 1008.8 |
| 20260506205559 | 57 | 187 | 1.7 | 13.0 | 0.01 | 0.03 | 0.03 | 87 | 1008.8 |
| 20260506205059 | 57 | 219 | 2.6 | 13.0 | 0.02 | 0.03 | 0.03 | 88 | 1008.7 |
| 20260506204601 | 57 | 200 | 2.6 | 11.3 | 0.02 | 0.03 | 0.03 | 88 | 1008.8 |
| 20260506204057 | 57 | 169 | 1.7 | 7.0 | 0.03 | 0.03 | 0.03 | 88 | 1008.9 |
| 20260506203558 | 57 | 142 | 0.9 | 8.7 | 0.03 | 0.03 | 0.03 | 88 | 1008.9 |
| 20260506203105 | 57 | 302 | 1.7 | 8.7 | 0.03 | 0.03 | 0.03 | 88 | 1008.9 |
| 20260506202604 | 57 | 161 | 0.9 | 8.7 | 0.03 | 0.03 | 0.03 | 88 | 1008.9 |
| 20260506202104 | 57 | 0 | 1.7 | 11.3 | 0.03 | 0.03 | 0.03 | 88 | 1009.0 |
| 20260506201610 | 57 | 94 | 2.6 | 11.3 | 0.03 | 0.03 | 0.03 | 87 | 1009.1 |
| 20260506201100 | 57 | 207 | 2.6 | 11.3 | 0.03 | 0.03 | 0.03 | 87 | 1009.1 |
| 20260506200600 | 57 | 222 | 0.9 | 7.0 | 0.03 | 0.03 | 0.03 | 87 | 1009.1 |
| 20260506200103 | 58 | 198 | 0.9 | 6.1 | 0.03 | 0.03 | 0.03 | 86 | 1009.1 |
| 20260506195602 | 58 | 130 | 0.9 | 8.7 | 0.02 | 0.02 | 0.02 | 85 | 1009.3 |
| 20260506195103 | 58 | 167 | 1.7 | 9.6 | 0.01 | 0.01 | 0.01 | 84 | 1009.3 |
| 20260506194623 | 59 | 219 | 2.6 | 9.6 | 0.01 | 0.01 | 0.01 | 83 | 1009.4 |
| 20260506194100 | 59 | 114 | 1.7 | 7.0 | 0.00 | 0.00 | 0.00 | 81 | 1009.5 |
| 20260506193601 | 60 | 219 | 1.7 | 7.8 | 0.00 | 0.00 | 0.00 | 80 | 1009.5 |
| 20260506193102 | 60 | 164 | 2.6 | 7.8 | 0.00 | 0.00 | 0.00 | 78 | 1009.5 |
| 20260506192559 | 61 | 160 | 0.9 | 9.6 | 0.00 | 0.00 | 0.00 | 77 | 1009.4 |
| 20260506192058 | 61 | 165 | 1.7 | 9.6 | 0.00 | 0.00 | 0.00 | 76 | 1009.3 |
| 20260506191607 | 61 | 188 | 2.6 | 9.6 | 0.00 | 0.00 | 0.00 | 76 | 1009.5 |
| 20260506191059 | 61 | 142 | 2.6 | 9.6 | 0.00 | 0.00 | 0.00 | 76 | 1009.4 |
| 20260506190558 | 61 | 213 | 2.6 | 9.6 | 0.00 | 0.00 | 0.00 | 76 | 1009.5 |
| 20260506190100 | 61 | 224 | 2.6 | 8.7 | 0.00 | 0.00 | 0.00 | 75 | 1009.5 |
| 20260506185557 | 61 | 0 | 1.7 | 8.7 | 0.00 | 0.00 | 0.00 | 76 | 1009.5 |
| 20260506185102 | 61 | 129 | 2.6 | 8.7 | 0.00 | 0.00 | 0.00 | 75 | 1009.2 |
| 20260506184609 | 62 | 136 | 2.6 | 12.2 | 0.00 | 0.00 | 0.00 | 75 | 1009.4 |
| 20260506184101 | 62 | 182 | 2.6 | 12.2 | 0.00 | 0.00 | 0.00 | 75 | 1009.5 |
| 20260506183600 | 62 | 107 | 3.5 | 11.3 | 0.00 | 0.00 | 0.00 | 74 | 1009.6 |
| 20260506183103 | 62 | 175 | 3.5 | 11.3 | 0.00 | 0.00 | 0.00 | 74 | 1009.6 |
| 20260506182601 | 62 | 200 | 3.5 | 12.2 | 0.00 | 0.00 | 0.00 | 74 | 1009.6 |
| 20260506182059 | 63 | 193 | 3.5 | 12.2 | 0.00 | 0.00 | 0.00 | 73 | 1009.7 |
| 20260506181601 | 63 | 135 | 1.7 | 10.4 | 0.00 | 0.00 | 0.00 | 73 | 1009.5 |
| 20260506181059 | 63 | 136 | 3.5 | 10.4 | 0.00 | 0.00 | 0.00 | 73 | 1009.7 |
| 20260506180557 | 63 | 151 | 1.7 | 10.4 | 0.00 | 0.00 | 0.00 | 73 | 1009.8 |
| 20260506175558 | 63 | 172 | 2.6 | 11.3 | 0.00 | 0.00 | 0.00 | 72 | 1010.0 |
| 20260506175057 | 64 | 180 | 3.5 | 11.3 | 0.00 | 0.00 | 0.00 | 71 | 1010.1 |
| 20260506174559 | 64 | 159 | 2.6 | 9.6 | 0.00 | 0.00 | 0.00 | 71 | 1010.1 |
| 20260506174059 | 65 | 229 | 3.5 | 15.6 | 0.00 | 0.00 | 0.00 | 71 | 1010.3 |
| 20260506173601 | 64 | 168 | 4.3 | 15.6 | 0.00 | 0.00 | 0.00 | 71 | 1010.4 |
| 20260506173109 | 65 | 182 | 4.3 | 14.8 | 0.00 | 0.00 | 0.00 | 70 | 1010.4 |
| 20260506172603 | 65 | 223 | 3.5 | 15.6 | 0.00 | 0.00 | 0.00 | 71 | 1010.4 |
| 20260506172058 | 65 | 217 | 4.3 | 15.6 | 0.00 | 0.00 | 0.00 | 70 | 1010.4 |
| 20260506171558 | 65 | 97 | 4.3 | 14.8 | 0.00 | 0.00 | 0.00 | 70 | 1010.2 |
| 20260506171105 | 65 | 144 | 3.5 | 13.0 | 0.00 | 0.00 | 0.00 | 70 | 1010.4 |
| 20260506170600 | 66 | 169 | 4.3 | 13.0 | 0.00 | 0.00 | 0.00 | 68 | 1010.3 |
| 20260506170115 | 67 | 194 | 1.7 | 15.6 | 0.00 | 0.00 | 0.00 | 70 | 1010.3 |
| 20260506165558 | 65 | 115 | 2.6 | 16.5 | 0.00 | 0.00 | 0.00 | 69 | 1010.6 |
| 20260506165058 | 66 | 276 | 3.5 | 16.5 | 0.00 | 0.00 | 0.00 | 69 | 1010.7 |
| 20260506164601 | 66 | 124 | 2.6 | 10.4 | 0.00 | 0.00 | 0.00 | 70 | 1010.5 |
| 20260506164057 | 66 | 211 | 1.7 | 10.4 | 0.00 | 0.00 | 0.00 | 69 | 1010.5 |
| 20260506163600 | 66 | 221 | 1.7 | 8.7 | 0.00 | 0.00 | 0.00 | 69 | 1010.6 |
| 20260506163112 | 66 | 206 | 1.7 | 11.3 | 0.00 | 0.00 | 0.00 | 70 | 1010.8 |
| 20260506162557 | 65 | 227 | 2.6 | 13.0 | 0.00 | 0.00 | 0.00 | 69 | 1010.6 |
| 20260506162100 | 65 | 167 | 4.3 | 13.0 | 0.00 | 0.00 | 0.00 | 69 | 1010.9 |
| 20260506161601 | 66 | 232 | 1.7 | 8.7 | 0.00 | 0.00 | 0.00 | 69 | 1011.1 |
| 20260506161100 | 66 | 155 | 1.7 | 14.8 | 0.00 | 0.00 | 0.00 | 69 | 1011.1 |
| 20260506160601 | 65 | 236 | 2.6 | 15.6 | 0.00 | 0.00 | 0.00 | 70 | 1011.1 |
| 20260506160107 | 65 | 54 | 4.3 | 15.6 | 0.00 | 0.00 | 0.00 | 69 | 1011.2 |
| 20260506155600 | 66 | 165 | 2.6 | 13.0 | 0.00 | 0.00 | 0.00 | 69 | 1011.3 |
| 20260506155059 | 66 | 327 | 4.3 | 13.0 | 0.00 | 0.00 | 0.00 | 68 | 1011.2 |
| 20260506154604 | 66 | 204 | 1.7 | 10.4 | 0.00 | 0.00 | 0.00 | 69 | 1011.2 |
| 20260506154058 | 66 | 222 | 3.5 | 17.4 | 0.00 | 0.00 | 0.00 | 69 | 1011.2 |
| 20260506153558 | 66 | 142 | 2.6 | 17.4 | 0.00 | 0.00 | 0.00 | 69 | 1011.3 |
| 20260506153058 | 65 | 153 | 3.5 | 11.3 | 0.00 | 0.00 | 0.00 | 69 | 1011.4 |
| 20260506152558 | 67 | 128 | 1.7 | 9.6 | 0.00 | 0.00 | 0.00 | 69 | 1011.3 |
| 20260506152101 | 65 | 167 | 3.5 | 9.6 | 0.00 | 0.00 | 0.00 | 70 | 1011.4 |
| 20260506151558 | 65 | 292 | 2.6 | 8.7 | 0.00 | 0.00 | 0.00 | 70 | 1011.5 |
| 20260506151103 | 65 | 194 | 0.9 | 8.7 | 0.00 | 0.00 | 0.00 | 71 | 1011.4 |
| 20260506150601 | 64 | 128 | 3.5 | 8.7 | 0.00 | 0.00 | 0.00 | 72 | 1011.5 |
| 20260506150101 | 64 | 217 | 2.6 | 8.7 | 0.00 | 0.00 | 0.00 | 71 | 1011.6 |
| 20260506145601 | 64 | 223 | 1.7 | 11.3 | 0.00 | 0.00 | 0.00 | 71 | 1011.5 |
| 20260506145106 | 64 | 194 | 1.7 | 11.3 | 0.00 | 0.00 | 0.00 | 71 | 1011.3 |
| 20260506144608 | 64 | 94 | 1.7 | 14.8 | 0.00 | 0.00 | 0.00 | 71 | 1011.4 |
| 20260506144058 | 64 | 200 | 1.7 | 14.8 | 0.00 | 0.00 | 0.00 | 71 | 1011.3 |
| 20260506143559 | 64 | 98 | 3.5 | 9.6 | 0.00 | 0.00 | 0.00 | 71 | 1011.3 |
| 20260506143109 | 64 | 246 | 3.5 | 8.7 | 0.00 | 0.00 | 0.00 | 71 | 1011.2 |
| 20260506142559 | 64 | 157 | 2.6 | 7.0 | 0.00 | 0.00 | 0.00 | 71 | 1011.4 |
| 20260506142104 | 64 | 163 | 2.6 | 8.7 | 0.00 | 0.00 | 0.00 | 72 | 1011.4 |
| 20260506141601 | 64 | 330 | 1.7 | 8.7 | 0.00 | 0.00 | 0.00 | 72 | 1011.2 |
| 20260506141058 | 64 | 0 | 3.5 | 8.7 | 0.00 | 0.00 | 0.00 | 72 | 1011.0 |
| 20260506140601 | 64 | 0 | 2.6 | 8.7 | 0.00 | 0.00 | 0.00 | 71 | 1011.2 |
| 20260506140059 | 64 | 161 | 1.7 | 6.1 | 0.00 | 0.00 | 0.00 | 71 | 1011.3 |
| 20260506135557 | 64 | 182 | 0.9 | 7.0 | 0.00 | 0.00 | 0.00 | 71 | 1011.3 |
| 20260506135057 | 64 | 136 | 1.7 | 7.0 | 0.00 | 0.00 | 0.00 | 72 | 1011.4 |
| 20260506134601 | 64 | 46 | 1.7 | 7.0 | 0.00 | 0.00 | 0.00 | 73 | 1011.5 |
| 20260506134057 | 63 | 98 | 1.7 | 10.4 | 0.00 | 0.00 | 0.00 | 73 | 1011.6 |
| 20260506133600 | 63 | 90 | 1.7 | 10.4 | 0.00 | 0.00 | 0.00 | 74 | 1011.7 |
| 20260506133103 | 62 | 198 | 2.6 | 10.4 | 0.00 | 0.00 | 0.00 | 75 | 1011.8 |
| 20260506132601 | 62 | 160 | 1.7 | 8.7 | 0.00 | 0.00 | 0.00 | 75 | 1012.0 |
| 20260506132058 | 62 | 134 | 1.7 | 8.7 | 0.00 | 0.00 | 0.00 | 76 | 1012.0 |
| 20260506131559 | 62 | 206 | 2.6 | 8.7 | 0.00 | 0.00 | 0.00 | 77 | 1012.0 |
| 20260506131059 | 61 | 232 | 0.9 | 9.6 | 0.00 | 0.00 | 0.00 | 78 | 1012.0 |
| 20260506130601 | 61 | 188 | 3.5 | 9.6 | 0.00 | 0.00 | 0.00 | 77 | 1012.0 |
| 20260506125557 | 60 | 142 | 1.7 | 7.8 | 0.00 | 0.00 | 0.00 | 79 | 1011.9 |
| 20260506125057 | 60 | 273 | 0.9 | 7.8 | 0.00 | 0.00 | 0.00 | 80 | 1012.0 |
| 20260506124602 | 60 | 294 | 0.9 | 6.1 | 0.00 | 0.00 | 0.00 | 80 | 1011.9 |
| 20260506124057 | 60 | 136 | 1.7 | 6.1 | 0.00 | 0.00 | 0.00 | 81 | 1011.8 |
| 20260506123600 | 59 | 208 | 1.7 | 10.4 | 0.00 | 0.00 | 0.00 | 81 | 1011.8 |
| 20260506123101 | 59 | 238 | 0.9 | 10.4 | 0.00 | 0.00 | 0.00 | 82 | 1011.7 |
| 20260506122600 | 59 | 98 | 2.6 | 10.4 | 0.00 | 0.00 | 0.00 | 82 | 1011.7 |
| 20260506122100 | 59 | 161 | 0.9 | 6.1 | 0.00 | 0.00 | 0.00 | 82 | 1011.9 |
| 20260506121559 | 58 | 128 | 2.6 | 7.0 | 0.00 | 0.00 | 0.00 | 83 | 1011.9 |
| 20260506121057 | 58 | 170 | 1.7 | 7.0 | 0.00 | 0.00 | 0.00 | 83 | 1012.1 |
| 20260506120601 | 58 | 208 | 0.9 | 7.0 | 0.00 | 0.00 | 0.00 | 83 | 1012.2 |
| 20260506120100 | 58 | 80 | 1.7 | 9.6 | 0.00 | 0.00 | 0.00 | 83 | 1012.3 |
| 20260506115558 | 58 | 140 | 0.9 | 9.6 | 0.00 | 0.00 | 0.00 | 83 | 1012.2 |
| 20260506115100 | 58 | 155 | 0.9 | 7.0 | 0.00 | 0.00 | 0.00 | 83 | 1012.1 |
| 20260506114559 | 58 | 192 | 2.6 | 7.0 | 0.00 | 0.00 | 0.00 | 83 | 1012.2 |
| 20260506114100 | 58 | 360 | 1.7 | 11.3 | 0.00 | 0.00 | 0.00 | 84 | 1012.2 |
| 20260506113559 | 57 | 143 | 1.7 | 11.3 | 0.00 | 0.00 | 0.00 | 84 | 1012.3 |
| 20260506113059 | 57 | 163 | 1.7 | 10.4 | 0.00 | 0.00 | 0.00 | 84 | 1012.2 |
| 20260506112605 | 57 | 0 | 0.9 | 7.0 | 0.00 | 0.00 | 0.00 | 85 | 1012.3 |
| 20260506112059 | 57 | 158 | 1.7 | 7.0 | 0.00 | 0.00 | 0.00 | 85 | 1012.3 |
| 20260506111603 | 57 | 197 | 2.6 | 7.0 | 0.00 | 0.00 | 0.00 | 85 | 1012.4 |
| 20260506111059 | 57 | 192 | 2.6 | 7.0 | 0.00 | 0.00 | 0.00 | 85 | 1012.3 |
| 20260506110602 | 57 | 171 | 0.9 | 6.1 | 0.00 | 0.00 | 0.00 | 85 | 1012.3 |
| 20260506110057 | 57 | 0 | 1.7 | 11.3 | 0.00 | 0.00 | 0.00 | 85 | 1012.3 |
| 20260506105557 | 57 | 180 | 2.6 | 11.3 | 0.00 | 0.00 | 0.00 | 85 | 1012.2 |
| 20260506105102 | 57 | 136 | 1.7 | 7.8 | 0.00 | 0.00 | 0.00 | 86 | 1012.2 |
| 20260506104602 | 57 | 208 | 0.9 | 7.8 | 0.00 | 0.00 | 0.00 | 86 | 1012.1 |
| 20260506104057 | 56 | 289 | 1.7 | 7.0 | 0.00 | 0.00 | 0.00 | 86 | 1012.1 |
| 20260506103601 | 56 | 158 | 0.9 | 5.2 | 0.00 | 0.00 | 0.00 | 86 | 1012.2 |
| 20260506103127 | 56 | 142 | 0.9 | 6.1 | 0.00 | 0.00 | 0.00 | 87 | 1012.2 |
| 20260506102600 | 56 | 265 | 1.7 | 7.0 | 0.00 | 0.00 | 0.00 | 87 | 1012.2 |
| 20260506102100 | 56 | 160 | 1.7 | 7.0 | 0.00 | 0.00 | 0.00 | 87 | 1012.0 |
| 20260506101602 | 56 | 167 | 0.9 | 7.0 | 0.00 | 0.00 | 0.00 | 87 | 1012.1 |
| 20260506101057 | 56 | 304 | 1.7 | 7.0 | 0.00 | 0.00 | 0.00 | 87 | 1012.1 |
| 20260506100600 | 56 | 74 | 1.7 | 9.6 | 0.00 | 0.00 | 0.00 | 87 | 1012.0 |
| 20260506100059 | 56 | 167 | 1.7 | 9.6 | 0.00 | 0.00 | 0.00 | 87 | 1011.9 |
| 20260506095600 | 56 | 171 | 2.6 | 8.7 | 0.00 | 0.00 | 0.00 | 88 | 1011.8 |
| 20260506095102 | 56 | 196 | 1.7 | 7.0 | 0.00 | 0.00 | 0.00 | 87 | 1011.9 |
| 20260506094606 | 56 | 188 | 1.7 | 7.0 | 0.00 | 0.00 | 0.00 | 88 | 1011.9 |
| 20260506094101 | 56 | 97 | 0.9 | 6.1 | 0.00 | 0.00 | 0.00 | 88 | 1011.8 |
| 20260506093601 | 56 | 184 | 0.9 | 6.1 | 0.00 | 0.00 | 0.00 | 88 | 1011.9 |
| 20260506093102 | 56 | 239 | 0.9 | 6.1 | 0.00 | 0.00 | 0.00 | 87 | 1011.9 |
| 20260506092600 | 56 | 230 | 0.0 | 6.1 | 0.00 | 0.00 | 0.00 | 87 | 1011.9 |
| 20260506092058 | 56 | 161 | 0.9 | 8.7 | 0.00 | 0.00 | 0.00 | 87 | 1012.0 |
| 20260506091607 | 56 | 126 | 1.7 | 8.7 | 0.00 | 0.00 | 0.00 | 87 | 1011.9 |
| 20260506091101 | 56 | 165 | 0.9 | 4.3 | 0.00 | 0.00 | 0.00 | 87 | 1011.9 |
| 20260506090559 | 56 | 138 | 0.0 | 5.2 | 0.00 | 0.00 | 0.00 | 87 | 1011.9 |
| 20260506085557 | 56 | 205 | 2.6 | 6.1 | 0.00 | 0.00 | 0.00 | 87 | 1012.0 |
| 20260506085059 | 56 | 205 | 1.7 | 6.1 | 0.00 | 0.00 | 0.00 | 86 | 1012.1 |
| 20260506084617 | 56 | 202 | 0.9 | 4.3 | 0.00 | 0.00 | 0.00 | 86 | 1012.1 |
| 20260506084100 | 56 | 148 | 0.9 | 8.7 | 0.00 | 0.00 | 0.00 | 86 | 1012.2 |
| 20260506083559 | 56 | 146 | 1.7 | 8.7 | 0.00 | 0.00 | 0.00 | 86 | 1012.1 |
| 20260506083103 | 56 | 195 | 1.7 | 8.7 | 0.00 | 0.00 | 0.00 | 86 | 1012.1 |
| 20260506082557 | 56 | 0 | 0.9 | 8.7 | 0.00 | 0.00 | 0.00 | 86 | 1012.1 |
| 20260506082100 | 56 | 215 | 0.9 | 7.0 | 0.00 | 0.00 | 0.00 | 86 | 1012.1 |
| 20260506081607 | 56 | 189 | 1.7 | 7.8 | 0.00 | 0.00 | 0.00 | 86 | 1012.1 |
| 20260506081100 | 56 | 185 | 2.6 | 7.8 | 0.00 | 0.00 | 0.00 | 85 | 1012.1 |
| 20260506080600 | 56 | 202 | 1.7 | 7.0 | 0.00 | 0.00 | 0.00 | 85 | 1012.1 |
| 20260506073102 | 56 | 215 | 1.7 | 7.0 | 0.00 | 0.00 | 0.00 | 85 | 1012.0 |
| 20260506072557 | 56 | 211 | 1.7 | 6.1 | 0.00 | 0.00 | 0.00 | 85 | 1012.0 |
| 20260506072100 | 56 | 144 | 1.7 | 6.1 | 0.00 | 0.00 | 0.00 | 85 | 1012.0 |
| 20260506071559 | 56 | 0 | 1.7 | 6.1 | 0.00 | 0.00 | 0.00 | 84 | 1012.0 |
| 20260506071059 | 56 | 180 | 1.7 | 5.2 | 0.00 | 0.00 | 0.00 | 84 | 1011.9 |
| 20260506070602 | 56 | 146 | 1.7 | 4.3 | 0.00 | 0.00 | 0.00 | 84 | 1012.0 |
| 20260506062059 | 57 | 111 | 1.7 | 8.7 | 0.00 | 0.00 | 0.00 | 82 | 1012.0 |
| 20260506061603 | 57 | 161 | 0.9 | 5.2 | 0.00 | 0.00 | 0.00 | 82 | 1012.0 |
| 20260506061057 | 57 | 220 | 1.7 | 5.2 | 0.00 | 0.00 | 0.00 | 82 | 1012.0 |
| 20260506060601 | 57 | 169 | 1.7 | 6.1 | 0.00 | 0.00 | 0.00 | 82 | 1012.0 |
| 20260506051059 | 57 | 167 | 1.7 | 7.0 | 0.00 | 0.00 | 0.00 | 81 | 1012.4 |
| 20260506050603 | 56 | 207 | 0.9 | 7.0 | 0.00 | 0.00 | 0.00 | 81 | 1012.5 |
| 20260506050111 | 56 | 0 | 0.9 | 7.0 | 0.00 | 0.00 | 0.00 | 81 | 1012.5 |
| 20260506045101 | 56 | 176 | 0.9 | 6.1 | 0.00 | 0.00 | 0.00 | 81 | 1012.7 |
| 20260506044601 | 56 | 170 | 1.7 | 6.1 | 0.00 | 0.00 | 0.00 | 81 | 1012.8 |
| 20260506044100 | 57 | 167 | 0.9 | 4.3 | 0.00 | 0.00 | 0.00 | 80 | 1012.8 |
| 20260506043600 | 57 | 182 | 1.7 | 6.1 | 0.00 | 0.00 | 0.00 | 80 | 1012.8 |
| 20260506043105 | 57 | 77 | 1.7 | 6.1 | 0.00 | 0.00 | 0.00 | 80 | 1012.9 |
| 20260506042600 | 57 | 171 | 1.7 | 4.3 | 0.00 | 0.00 | 0.00 | 80 | 1012.7 |
| 20260506042100 | 57 | 167 | 0.9 | 10.4 | 0.00 | 0.00 | 0.00 | 80 | 1012.7 |
| 20260506041600 | 57 | 126 | 1.7 | 10.4 | 0.00 | 0.00 | 0.00 | 79 | 1012.8 |
| 20260506041059 | 57 | 0 | 0.9 | 8.7 | 0.00 | 0.00 | 0.00 | 79 | 1012.6 |
| 20260506040559 | 57 | 222 | 1.7 | 8.7 | 0.00 | 0.00 | 0.00 | 79 | 1012.7 |
| 20260506040107 | 57 | 168 | 0.9 | 8.7 | 0.00 | 0.00 | 0.00 | 79 | 1012.6 |
| 20260506035559 | 57 | 202 | 1.7 | 7.8 | 0.00 | 0.00 | 0.00 | 78 | 1012.6 |
| 20260506035059 | 57 | 169 | 0.9 | 5.2 | 0.00 | 0.00 | 0.00 | 78 | 1012.5 |
| 20260506034605 | 57 | 0 | 2.6 | 5.2 | 0.00 | 0.00 | 0.00 | 77 | 1012.5 |
| 20260506034059 | 57 | 119 | 1.7 | 6.1 | 0.00 | 0.00 | 0.00 | 77 | 1012.6 |
| 20260506033600 | 57 | 103 | 0.9 | 6.1 | 0.00 | 0.00 | 0.00 | 77 | 1012.6 |
| 20260506033100 | 57 | 0 | 2.6 | 5.2 | 0.00 | 0.00 | 0.00 | 77 | 1012.5 |
| 20260506032602 | 57 | 195 | 0.9 | 5.2 | 0.00 | 0.00 | 0.00 | 76 | 1012.5 |
| 20260506032100 | 57 | 181 | 0.9 | 5.2 | 0.00 | 0.00 | 0.00 | 76 | 1012.5 |
| 20260506031600 | 57 | 219 | 0.9 | 7.8 | 0.00 | 0.00 | 0.00 | 76 | 1012.5 |